TimeCST,TemperatureF,Dew PointF,Humidity,Sea Level PressureIn,VisibilityMPH,Wind Direction,Wind SpeedMPH,Gust SpeedMPH,PrecipitationIn,Events,Conditions,WindDirDegrees,DateUTC
12:15 AM,-4.0,-5.8,92,29.94,10.0,Calm,Calm,-,N/A,,Clear,0,2012-12-12 06:15:00
12:35 AM,-0.4,-4.0,85,29.93,10.0,East,3.5,-,N/A,,Clear,90,2012-12-12 06:35:00
12:55 AM,1.4,-4.0,78,29.93,10.0,ESE,4.6,-,N/A,,Scattered Clouds,120,2012-12-12 06:55:00
1:15 AM,-0.4,-5.8,78,29.93,10.0,ESE,3.5,-,N/A,,Scattered Clouds,120,2012-12-12 07:15:00
1:55 AM,3.2,-0.4,85,29.91,10.0,East,5.8,-,N/A,,Mostly Cloudy,100,2012-12-12 07:55:00
2:15 AM,3.2,1.4,92,29.90,10.0,East,4.6,-,N/A,,Overcast,100,2012-12-12 08:15:00
2:35 AM,5.0,1.4,85,29.89,10.0,East,6.9,-,N/A,,Overcast,100,2012-12-12 08:35:00
2:55 AM,5.0,1.4,85,29.89,10.0,ESE,4.6,-,N/A,,Overcast,110,2012-12-12 08:55:00
3:15 AM,5.0,3.2,92,29.88,10.0,ESE,5.8,-,N/A,,Scattered Clouds,110,2012-12-12 09:15:00
3:35 AM,5.0,3.2,92,29.87,10.0,East,6.9,-,N/A,,Clear,100,2012-12-12 09:35:00
3:55 AM,6.8,3.2,85,29.87,10.0,ESE,8.1,-,N/A,,Clear,110,2012-12-12 09:55:00
4:15 AM,6.8,3.2,85,29.87,10.0,East,8.1,-,N/A,,Clear,100,2012-12-12 10:15:00
4:35 AM,6.8,5.0,92,29.85,10.0,East,8.1,-,N/A,,Clear,100,2012-12-12 10:35:00
4:55 AM,8.6,5.0,85,29.84,10.0,East,8.1,-,N/A,,Clear,90,2012-12-12 10:55:00
5:15 AM,8.6,6.8,92,29.82,10.0,East,8.1,-,N/A,,Scattered Clouds,100,2012-12-12 11:15:00
5:35 AM,10.4,6.8,85,29.82,10.0,East,9.2,-,N/A,,Scattered Clouds,100,2012-12-12 11:35:00
5:55 AM,10.4,8.6,92,29.81,10.0,ESE,8.1,-,N/A,,Scattered Clouds,110,2012-12-12 11:55:00
6:15 AM,12.2,10.4,92,29.81,7.0,ESE,8.1,-,N/A,,Scattered Clouds,110,2012-12-12 12:15:00
6:35 AM,14.0,12.2,93,29.81,7.0,East,6.9,-,N/A,,Clear,100,2012-12-12 12:35:00
6:55 AM,15.8,14.0,93,29.80,10.0,ESE,11.5,-,N/A,,Scattered Clouds,110,2012-12-12 12:55:00
7:35 AM,15.8,14.0,93,29.79,10.0,SE,10.4,-,N/A,,Clear,130,2012-12-12 13:35:00
7:55 AM,15.8,14.0,93,29.79,7.0,ESE,9.2,-,N/A,,Clear,120,2012-12-12 13:55:00
8:15 AM,17.6,14.0,86,29.79,7.0,ESE,8.1,-,N/A,,Clear,110,2012-12-12 14:15:00
8:35 AM,17.6,14.0,86,29.79,7.0,ESE,8.1,-,N/A,,Scattered Clouds,110,2012-12-12 14:35:00
8:55 AM,17.6,15.8,93,29.78,7.0,ESE,10.4,-,N/A,,Clear,120,2012-12-12 14:55:00
9:15 AM,17.6,15.8,93,29.78,7.0,ESE,9.2,-,N/A,,Clear,110,2012-12-12 15:15:00
9:35 AM,19.4,17.6,93,29.78,7.0,ESE,8.1,-,N/A,,Clear,120,2012-12-12 15:35:00
9:55 AM,21.2,17.6,86,29.79,10.0,ESE,6.9,-,N/A,,Clear,120,2012-12-12 15:55:00
10:15 AM,23.0,19.4,86,29.78,10.0,SE,8.1,-,N/A,,Clear,130,2012-12-12 16:15:00
10:55 AM,26.6,19.4,74,29.78,10.0,SE,10.4,-,N/A,,Clear,140,2012-12-12 16:55:00
11:15 AM,26.6,19.4,74,29.78,10.0,SSE,8.1,-,N/A,,Clear,150,2012-12-12 17:15:00
11:35 AM,26.6,19.4,74,29.77,10.0,SE,8.1,-,N/A,,Clear,140,2012-12-12 17:35:00
11:55 AM,28.4,21.2,74,29.77,10.0,SE,9.2,-,N/A,,Clear,140,2012-12-12 17:55:00
12:15 PM,28.4,21.2,74,29.76,10.0,SE,8.1,-,N/A,,Clear,140,2012-12-12 18:15:00
12:35 PM,28.4,21.2,74,29.76,10.0,SE,5.8,-,N/A,,Clear,140,2012-12-12 18:35:00
12:55 PM,30.2,21.2,69,29.75,10.0,SE,8.1,-,N/A,,Clear,140,2012-12-12 18:55:00
1:15 PM,30.2,23.0,75,29.75,10.0,South,5.8,-,N/A,,Clear,170,2012-12-12 19:15:00
1:35 PM,30.2,21.2,69,29.76,10.0,South,6.9,-,N/A,,Clear,180,2012-12-12 19:35:00
1:55 PM,30.2,23.0,75,29.75,10.0,South,6.9,-,N/A,,Clear,170,2012-12-12 19:55:00
2:15 PM,30.2,21.2,69,29.75,10.0,SSE,8.1,-,N/A,,Clear,160,2012-12-12 20:15:00
2:35 PM,30.2,23.0,75,29.77,10.0,South,6.9,-,N/A,,Clear,180,2012-12-12 20:35:00
2:55 PM,30.2,21.2,69,29.76,10.0,SSE,5.8,-,N/A,,Clear,160,2012-12-12 20:55:00
3:15 PM,28.4,23.0,80,29.77,10.0,South,5.8,-,N/A,,Clear,170,2012-12-12 21:15:00
3:35 PM,28.4,23.0,80,29.77,10.0,SSE,4.6,-,N/A,,Clear,150,2012-12-12 21:35:00
3:55 PM,28.4,23.0,80,29.78,10.0,SSE,3.5,-,N/A,,Scattered Clouds,160,2012-12-12 21:55:00
4:15 PM,28.4,23.0,80,29.79,10.0,Calm,Calm,-,N/A,,Mostly Cloudy,0,2012-12-12 22:15:00
4:35 PM,28.4,23.0,80,29.79,10.0,Calm,Calm,-,N/A,,Mostly Cloudy,0,2012-12-12 22:35:00
4:55 PM,28.4,23.0,80,29.80,10.0,Calm,Calm,-,N/A,,Mostly Cloudy,0,2012-12-12 22:55:00
5:15 PM,28.4,23.0,80,29.81,10.0,Calm,Calm,-,N/A,,Overcast,0,2012-12-12 23:15:00
5:55 PM,28.4,23.0,80,29.81,10.0,Calm,Calm,-,N/A,,Overcast,0,2012-12-12 23:55:00
6:15 PM,28.4,24.8,86,29.82,10.0,Calm,Calm,-,N/A,,Overcast,0,2012-12-13 00:15:00
6:35 PM,28.4,24.8,86,29.81,10.0,Calm,Calm,-,N/A,,Overcast,0,2012-12-13 00:35:00
6:55 PM,28.4,24.8,86,29.82,10.0,Calm,Calm,-,N/A,,Overcast,0,2012-12-13 00:55:00
7:15 PM,28.4,24.8,86,29.83,10.0,Calm,Calm,-,N/A,,Overcast,0,2012-12-13 01:15:00
7:35 PM,28.4,24.8,86,29.83,10.0,NNW,3.5,-,N/A,,Overcast,340,2012-12-13 01:35:00
7:55 PM,28.4,24.8,86,29.85,10.0,Calm,Calm,-,N/A,,Overcast,0,2012-12-13 01:55:00
8:15 PM,28.4,24.8,86,29.85,10.0,Calm,Calm,-,N/A,,Overcast,0,2012-12-13 02:15:00
8:35 PM,28.4,24.8,86,29.85,10.0,Calm,Calm,-,N/A,,Overcast,0,2012-12-13 02:35:00
8:55 PM,28.4,24.8,86,29.85,10.0,Calm,Calm,-,N/A,,Mostly Cloudy,0,2012-12-13 02:55:00
9:15 PM,26.6,23.0,86,29.85,10.0,Calm,Calm,-,N/A,,Scattered Clouds,0,2012-12-13 03:15:00
9:35 PM,26.6,23.0,86,29.86,10.0,SE,4.6,-,N/A,,Clear,140,2012-12-13 03:35:00
9:55 PM,23.0,21.2,93,29.87,10.0,Calm,Calm,-,N/A,,Clear,0,2012-12-13 03:55:00
10:15 PM,23.0,21.2,93,29.87,10.0,Calm,Calm,-,N/A,,Clear,0,2012-12-13 04:15:00
10:35 PM,21.2,19.4,93,29.86,10.0,Calm,Calm,-,N/A,,Clear,0,2012-12-13 04:35:00
10:55 PM,19.4,17.6,93,29.87,7.0,Calm,Calm,-,N/A,,Clear,0,2012-12-13 04:55:00
11:15 PM,19.4,19.4,100,29.88,4.0,Calm,Calm,-,N/A,,Clear,0,2012-12-13 05:15:00
11:35 PM,19.4,17.6,93,29.87,5.0,Calm,Calm,-,N/A,,Clear,0,2012-12-13 05:35:00
11:55 PM,17.6,17.6,100,29.87,1.2,Calm,Calm,-,N/A,,Mist,0,2012-12-13 05:55:00